Hourly Weather Roundup
Issued by NWS Central Illinois

Home | Current Version | Previous Version | Text Only | Print | Product List | Glossary On
Versions: 1 2 3 4 5 6 7 8 9 10 11 12 13 14 15 16 17 18 19 20 21 22 23 24 25 26 27 28 29 30 31 32 33 34 35 36 37 38 39 40 41 42 43 44 45 46 47 48 49 50
000
NZUS43 KILX 271210
HWRILX

AREA WEATHER ROUNDUP
NATIONAL WEATHER SERVICE, LINCOLN IL
700 AM CDT TUE SEP 27 2016


CITY           SKY/WX    TMP DP  RH WIND       PRES   REMARKS
BLOOMINGTON    CLEAR     52  45  77 W9        29.94F
6HR MIN TEMP:  50; 6HR MAX TEMP:  54;

CHAMPAIGN      CLEAR     49  43  80 SW6       29.95S
6HR MIN TEMP:  49; 6HR MAX TEMP:  53;

DANVILLE       CLEAR     51  44  76 W7        29.92S
6HR MIN TEMP:  51; 6HR MAX TEMP:  53;

DECATUR        CLEAR     56  43  61 SW12      29.97S
6HR MIN TEMP:  55; 6HR MAX TEMP:  59;

EFFINGHAM      CLEAR     50  49  95 SW3       30.02S
FLORA          CLEAR     51  47  85 SW6       30.02F
6HR MIN TEMP:  48; 6HR MAX TEMP:  51;

GALESBURG        N/A    N/A N/A N/A MISG        N/A
JACKSONVILLE   CLEAR     50  44  79 SW5       29.98S
6HR MIN TEMP:  50; 6HR MAX TEMP:  56;

LACON          CLEAR     49  44  82 SW5       29.92R
6HR MIN TEMP:  49; 6HR MAX TEMP:  58;

LAWRENCEVILLE  CLEAR     48  45  89 SW3       30.02S
6HR MIN TEMP:  47; 6HR MAX TEMP:  52;

LITCHFIELD     CLEAR     50  44  78 SW8       30.00S
$$


CITY           SKY/WX    TMP DP  RH WIND       PRES   REMARKS
LINCOLN        CLEAR     55  46  70 W6        29.95S
6HR MIN TEMP:  54; 6HR MAX TEMP:  58;

MACOMB         CLEAR     47  45  93 SW7       29.98S
MATTOON        CLEAR     53  43  68 SW7       29.97F
6HR MIN TEMP:  52; 6HR MAX TEMP:  57;

MT CARMEL AP   CLEAR     47  45  91 W5        30.02S
6HR MIN TEMP:  46; 6HR MAX TEMP:  51;

OLNEY-NOBLE AP CLEAR     46  46 100 CALM      30.03S
PARIS          CLEAR     51  44  79 SW3       29.97F
6HR MIN TEMP:  50; 6HR MAX TEMP:  54;

PEORIA         CLEAR     50  46  86 W6        29.94S
6HR MIN TEMP:  50; 6HR MAX TEMP:  59;

PONTIAC        CLEAR     50  47  92 SW9       29.92S
RANTOUL        CLEAR     53  46  74 SW7       29.94S
6HR MIN TEMP:  52; 6HR MAX TEMP:  56;

ROBINSON       CLEAR     50  46  86 SW8       30.02S
6HR MIN TEMP:  46; 6HR MAX TEMP:  51;

SPRINGFIELD    CLEAR     51  44  77 SW6       29.97S
6HR MIN TEMP:  51; 6HR MAX TEMP:  56;

TAYLORVILLE    CLEAR     53  44  70 SW9       29.98S
$$

...REGIONAL REPORTS...


CITY           SKY/WX    TMP DP  RH WIND       PRES   REMARKS
CHICAGO O`HARE PTCLDY    51  40  65 W13       29.84S
KANKAKEE       CLEAR     44  42  92 SW5       29.90S
MOLINE         CLEAR     48  42  80 W7        29.92S
MOUNT STERLING CLEAR     50  45  83 W7        29.98S
MOUNT VERNON   CLEAR     46  39  76 CALM      30.04S
PITTSFIELD     CLEAR     55  46  72 W7        30.00S
QUINCY         CLEAR     50  46  86 SW6       29.98S
ROCKFORD       PTCLDY    49  40  71 SW9       29.86F
$$


CITY           SKY/WX    TMP DP  RH WIND       PRES   REMARKS
BURLINGTON     CLEAR     50  45  83 W5        29.95F
CEDAR RAPIDS   CLEAR     46  42  86 W9        29.92S
DES MOINES     PTCLDY    50  43  77 W5        29.99R
KIRKSVILLE     CLEAR     49  46  90 W6        30.01S
OTTUMWA        CLEAR    N/A N/A N/A W8        29.97S
ST LOUIS       PTCLDY    57  44  62 SW7       30.03S
$$


CITY           SKY/WX    TMP DP  RH WIND       PRES   REMARKS
TERRE HAUTE    CLEAR     49  43  80 SW6       29.99R
EVANSVILLE     CLEAR     49  47  93 CALM      30.03F
INDIANAPOLIS   CLEAR     48  43  82 SW8       29.97R
LAFAYETTE      CLEAR     46  44  93 SW3       29.92S
MADISON        PTCLDY    51  37  58 VRB7      29.77F
MILWAUKEE      PTCLDY    53  38  56 SW12      29.76F
$$






USA.gov is the U.S. government's official web portal to all federal, state and local government web resources and services.